Tupelo, MS

4:24 AM CDT on April 29, 2017 (GMT -0500)
Tupelo Regional

Weather History for KTUP - April, 2013

Change the Weather History Date:

Wednesday, April 24, 2013

  Actual Average Record
Temperature  
Mean Temperature 56 °F 64 °F  
Max Temperature 67 °F 76 °F 90 °F (1965)
Min Temperature 44 °F 53 °F 33 °F (1982)
Degree Days  
Heating Degree Days 9 3  
Month to date heating degree days 141 131  
Since 1 July heating degree days 2882 2917  
Cooling Degree Days 0 3  
Month to date cooling degree days 50 41  
Year to date cooling degree days 57 57  
Growing Degree Days 7 (Base 50)    
Moisture  
Dew Point 50 °F    
Average Humidity 75    
Maximum Humidity 87    
Minimum Humidity 62    
Precipitation  
Precipitation 0.44 in 0.16 in 2.79 in (1999)
Month to date precipitation 4.93 3.73  
Year to date precipitation 21.69 17.99  
Snow  
Snow 0.00 in 0.00 in T in (1933)
Month to date snowfall 0.0 0.0  
Since 1 July snowfall T 2.1  
Snow Depth 0.00 in    
Sea Level Pressure  
Sea Level Pressure 30.09 in    
Wind  
Wind Speed 11 mph (NNW)    
Max Wind Speed 22 mph    
Max Gust Speed 32 mph    
Visibility 8 miles    
Events Rain , Thunderstorm    
T = Trace of Precipitation, MM = Missing Value Source: NWS Daily Summary

Daily Weather History Graph

Daily Weather History Graph

Search for Another Location

Airport or City:

Trip Planner

Search our weather history database for the weather conditions in past years. The results will help you decide how hot, cold, wet, or windy it might be!

Date:

Astronomy

Apr. 24, 2013 Rise Set
Actual Time 6:12 AM CDT 7:34 PM CDT
Civil Twilight 5:46 AM CDT 8:00 PM CDT
Nautical Twilight 5:15 AM CDT 8:31 PM CDT
Astronomical Twilight 4:42 AM CDT 9:04 PM CDT
Moon 6:38 PM CDT (4/24) 5:13 AM CDT (4/24)
Length of Visible Light 14h 13m
Length of Day
13h 21m
Waxing Gibbous, 98% of the Moon is Illuminated
Apr 24
Waxing Gibbous
Apr 25
Full
May 2
Last Quarter
May 9
New
May 17
First Quarter

Hourly Weather History & Observations

Time (CDT) Temp. Dew Point Humidity Pressure Visibility Wind Dir Wind Speed Gust Speed Precip Events Conditions
12:53 AM 66.9 °F 57.9 °F 73% 29.97 in 10.0 mi SSW 11.5 mph 18.4 mph N/A   Partly Cloudy
1:53 AM 66.9 °F 59.0 °F 76% 29.96 in 10.0 mi SSW 12.7 mph 21.9 mph N/A   Scattered Clouds
2:53 AM 66.0 °F 60.1 °F 81% 29.93 in 10.0 mi SSW 13.8 mph - N/A   Mostly Cloudy
3:31 AM 66.2 °F 60.8 °F 83% 29.94 in 10.0 mi SW 17.3 mph 21.9 mph N/A   Overcast
3:53 AM 66.9 °F 61.0 °F 81% 29.94 in 10.0 mi SSW 15.0 mph 24.2 mph N/A   Overcast
4:24 AM 66.2 °F 60.8 °F 83% 29.95 in 10.0 mi SW 13.8 mph 20.7 mph N/A   Overcast
4:53 AM 66.9 °F 61.0 °F 81% 29.94 in 10.0 mi SW 12.7 mph - N/A   Overcast
5:53 AM 66.0 °F 62.1 °F 87% 29.91 in 10.0 mi SSW 15.0 mph - N/A   Overcast
6:06 AM 66.2 °F 62.6 °F 88% 29.93 in 10.0 mi SW 11.5 mph - N/A   Overcast
6:15 AM 66.2 °F 62.6 °F 88% 29.93 in 10.0 mi SSW 17.3 mph 21.9 mph N/A   Overcast
6:28 AM 66.2 °F 62.6 °F 88% 29.94 in 10.0 mi SSW 13.8 mph 20.7 mph N/A   Overcast
6:53 AM 66.9 °F 62.1 °F 84% 29.94 in 10.0 mi SW 12.7 mph - N/A   Overcast
7:07 AM 66.2 °F 62.6 °F 88% 29.96 in 10.0 mi SW 15.0 mph - N/A Thunderstorm Thunderstorm
7:22 AM 62.6 °F 57.2 °F 82% 30.01 in 7.0 mi NNW 21.9 mph 32.2 mph 0.00 in Rain , Thunderstorm Light Rain
7:32 AM 55.4 °F 51.8 °F 88% 30.03 in 2.0 mi NNW 12.7 mph 25.3 mph 0.07 in Rain , Thunderstorm Thunderstorms and Rain
7:37 AM 55.4 °F 51.8 °F 88% 30.05 in 4.0 mi NNW 11.5 mph 25.3 mph 0.08 in Rain , Thunderstorm Light Thunderstorms and Rain
7:53 AM 54.0 °F 51.1 °F 90% 30.06 in 4.0 mi NNW 9.2 mph 18.4 mph 0.11 in Rain , Thunderstorm Thunderstorms and Rain
8:25 AM 51.8 °F 48.2 °F 88% 30.07 in 5.0 mi North 6.9 mph - 0.07 in Rain , Thunderstorm Light Thunderstorms and Rain
8:32 AM 51.8 °F 48.2 °F 88% 30.06 in 5.0 mi NNE 5.8 mph - 0.09 in Rain Rain
8:39 AM 51.8 °F 48.2 °F 88% 30.07 in 4.0 mi Calm Calm - 0.09 in Rain , Thunderstorm Light Thunderstorms and Rain
8:49 AM 51.8 °F 48.2 °F 88% 30.07 in 1.8 mi Calm Calm - 0.13 in Rain , Thunderstorm Thunderstorms and Rain
8:53 AM 51.1 °F 48.9 °F 92% 30.06 in 1.5 mi Calm Calm - 0.18 in Rain , Thunderstorm Heavy Thunderstorms and Rain
8:59 AM 51.8 °F 48.2 °F 88% 30.06 in 3.0 mi NNE 4.6 mph - 0.01 in Rain , Thunderstorm Light Thunderstorms and Rain
9:10 AM 51.8 °F 48.2 °F 88% 30.07 in 2.5 mi North 3.5 mph - 0.04 in Rain Heavy Rain
9:29 AM 51.8 °F 50.0 °F 94% 30.09 in 5.0 mi NNW 6.9 mph - 0.13 in Rain Light Rain
9:39 AM 50.0 °F 48.2 °F 94% 30.11 in 6.0 mi NNW 13.8 mph 23.0 mph 0.15 in Rain Light Rain
9:53 AM 50.0 °F 46.9 °F 89% 30.12 in 10.0 mi NNW 11.5 mph 20.7 mph 0.15 in   Overcast
10:06 AM 50.0 °F 46.4 °F 87% 30.13 in 10.0 mi North 11.5 mph 18.4 mph N/A   Overcast
10:12 AM 50.0 °F 46.4 °F 87% 30.14 in 10.0 mi North 6.9 mph 18.4 mph N/A   Overcast
10:53 AM 48.0 °F 44.1 °F 86% 30.18 in 10.0 mi North 15.0 mph 21.9 mph N/A   Overcast
11:18 AM 48.2 °F 44.6 °F 87% 30.19 in 10.0 mi North 10.4 mph 19.6 mph N/A   Overcast
11:31 AM 48.2 °F 44.6 °F 87% 30.18 in 10.0 mi North 11.5 mph - N/A   Overcast
11:53 AM 48.9 °F 45.0 °F 86% 30.18 in 10.0 mi North 11.5 mph 17.3 mph N/A   Overcast
12:49 PM 53.6 °F 46.4 °F 77% 30.17 in 10.0 mi North 10.4 mph 17.3 mph N/A   Overcast
12:53 PM 55.0 °F 46.9 °F 74% 30.17 in 10.0 mi North 5.8 mph - N/A   Overcast
1:53 PM 57.0 °F 45.0 °F 64% 30.17 in 10.0 mi North 11.5 mph 17.3 mph N/A   Overcast
2:53 PM 54.0 °F 43.0 °F 66% 30.19 in 10.0 mi North 12.7 mph 18.4 mph N/A   Overcast
3:53 PM 53.1 °F 42.1 °F 66% 30.19 in 10.0 mi North 11.5 mph - N/A   Overcast
4:53 PM 54.0 °F 43.0 °F 66% 30.19 in 10.0 mi North 8.1 mph 18.4 mph N/A   Overcast
5:53 PM 52.0 °F 42.1 °F 69% 30.21 in 10.0 mi NNE 13.8 mph - N/A   Mostly Cloudy
6:53 PM 50.0 °F 39.9 °F 68% 30.22 in 10.0 mi NNE 13.8 mph - N/A   Mostly Cloudy
7:53 PM 48.9 °F 39.9 °F 71% 30.23 in 10.0 mi NNE 9.2 mph - N/A   Overcast
8:53 PM 48.0 °F 39.9 °F 74% 30.25 in 10.0 mi NNE 6.9 mph - N/A   Overcast
9:53 PM 48.9 °F 39.0 °F 69% 30.28 in 10.0 mi NE 10.4 mph - N/A   Overcast
10:53 PM 48.0 °F 39.9 °F 74% 30.29 in 10.0 mi NE 8.1 mph - N/A   Overcast
11:53 PM 46.9 °F 39.9 °F 77% 30.30 in 10.0 mi NNE 5.8 mph - N/A   Overcast